Location: Davayat
(45.9471°N, 3.1105°E)
Time: 16:51:47
(UTC+00:00)

TIMED - Pass Details

Date: 01 December 2020
Orbit: 602 x 605 km, 74.1° (Epoch: 17 January)

Event Time Altitude Azimuth Distance (km) Brightness Sun altitude
Rises 17:17:05 0° 195° (SSW) 2,838 8.5 -12.3°
Reaches altitude 10° 17:19:18 10° 193° (SSW) 1,940 7.5 -12.7°
Maximum altitude 17:23:37 74° 109° (ESE) 631 4.4 -13.4°
Enters shadow 17:27:45 11° 25° (NNE) 1,864 6.6 -14.1°
